| time (UTC) | temp F | wind direction | speed knots | gust knots | rain 1hr in | rain 24hr in | rain mn in | humidity % | barometer mb |
| 20260504024827 | 50 | 360 | 0.0 | 0.0 | 0.00 | 0.00 | 0.00 | 70 | 1016.0 |
| 20260504024327 | 50 | 360 | 0.0 | 0.0 | 0.00 | 0.00 | 0.00 | 69 | 1016.1 |
| 20260504023827 | 50 | 360 | 0.0 | 0.0 | 0.00 | 0.00 | 0.00 | 68 | 1016.0 |
| 20260504023327 | 50 | 360 | 0.0 | 0.9 | 0.00 | 0.00 | 0.00 | 68 | 1016.1 |
| 20260504022826 | 50 | 360 | 0.0 | 0.9 | 0.00 | 0.00 | 0.00 | 67 | 1016.1 |
| 20260504022327 | 51 | 360 | 0.0 | 0.0 | 0.00 | 0.00 | 0.00 | 66 | 1016.1 |
| 20260504021827 | 51 | 360 | 0.0 | 0.0 | 0.00 | 0.00 | 0.00 | 66 | 1016.1 |
| 20260504021326 | 51 | 360 | 0.0 | 0.0 | 0.00 | 0.00 | 0.00 | 64 | 1016.1 |
| 20260504020826 | 51 | 360 | 0.0 | 0.0 | 0.00 | 0.00 | 0.00 | 63 | 1016.1 |
| 20260504020326 | 51 | 360 | 0.0 | 0.0 | 0.00 | 0.00 | 0.00 | 63 | 1016.1 |
| 20260504015827 | 51 | 360 | 0.0 | 0.0 | 0.00 | 0.00 | 0.00 | 63 | 1016.1 |
| 20260504015327 | 51 | 360 | 0.0 | 0.0 | 0.00 | 0.00 | 0.00 | 61 | 1016.0 |
| 20260504014327 | 52 | 360 | 0.0 | 0.0 | 0.00 | 0.00 | 0.00 | 60 | 1016.1 |
| 20260504013826 | 52 | 360 | 0.0 | 0.0 | 0.00 | 0.00 | 0.00 | 59 | 1016.0 |
| 20260504013327 | 52 | 360 | 0.0 | 0.0 | 0.00 | 0.00 | 0.00 | 58 | 1016.0 |
| 20260504012826 | 53 | 360 | 0.0 | 0.0 | 0.00 | 0.00 | 0.00 | 58 | 1016.0 |
| 20260504011826 | 53 | 360 | 0.0 | 0.0 | 0.00 | 0.00 | 0.00 | 57 | 1015.9 |
| 20260504011326 | 54 | 360 | 0.0 | 0.0 | 0.00 | 0.00 | 0.00 | 57 | 1015.9 |
| 20260504010826 | 54 | 360 | 0.0 | 0.0 | 0.00 | 0.00 | 0.00 | 56 | 1015.7 |
| 20260504010326 | 54 | 360 | 0.0 | 0.0 | 0.00 | 0.00 | 0.00 | 55 | 1015.6 |
| 20260504005826 | 55 | 360 | 0.0 | 0.0 | 0.00 | 0.00 | 0.00 | 54 | 1015.5 |
| 20260504004826 | 55 | 360 | 0.0 | 0.0 | 0.00 | 0.00 | 0.00 | 52 | 1015.5 |
| 20260504004326 | 56 | 360 | 0.0 | 0.0 | 0.00 | 0.00 | 0.00 | 52 | 1015.4 |
| 20260504003826 | 56 | 360 | 0.0 | 0.0 | 0.00 | 0.00 | 0.00 | 50 | 1015.3 |
| 20260504003326 | 57 | 360 | 0.0 | 0.0 | 0.00 | 0.00 | 0.00 | 50 | 1015.2 |
| 20260504002826 | 57 | 360 | 0.0 | 0.0 | 0.00 | 0.00 | 0.00 | 48 | 1015.2 |
| 20260504001826 | 58 | 360 | 0.0 | 0.0 | 0.00 | 0.00 | 0.00 | 47 | 1015.1 |
| 20260504001326 | 58 | 360 | 0.0 | 0.0 | 0.00 | 0.00 | 0.00 | 46 | 1014.9 |
| 20260504000826 | 59 | 360 | 0.0 | 0.0 | 0.00 | 0.00 | 0.00 | 46 | 1014.7 |
| 20260503235826 | 59 | 360 | 0.0 | 0.0 | 0.00 | 0.00 | 0.00 | 43 | 1014.8 |
| 20260503235326 | 60 | 360 | 0.0 | 0.0 | 0.00 | 0.00 | 0.00 | 43 | 1014.7 |
| 20260503234826 | 60 | 360 | 0.0 | 0.0 | 0.00 | 0.00 | 0.00 | 42 | 1014.6 |
| 20260503233826 | 61 | 360 | 0.0 | 0.0 | 0.00 | 0.00 | 0.00 | 41 | 1014.7 |
| 20260503233326 | 61 | 360 | 0.0 | 0.0 | 0.00 | 0.00 | 0.00 | 40 | 1014.7 |
| 20260503232826 | 61 | 360 | 0.0 | 0.0 | 0.00 | 0.00 | 0.00 | 39 | 1014.6 |
| 20260503232326 | 61 | 360 | 0.0 | 0.9 | 0.00 | 0.00 | 0.00 | 37 | 1014.6 |
| 20260503231826 | 62 | 360 | 0.0 | 0.9 | 0.00 | 0.00 | 0.00 | 36 | 1014.6 |
| 20260503231326 | 62 | 360 | 0.0 | 0.9 | 0.00 | 0.00 | 0.00 | 38 | 1014.6 |
| 20260503230826 | 62 | 360 | 0.0 | 1.7 | 0.00 | 0.00 | 0.00 | 37 | 1014.6 |
| 20260503230326 | 62 | 360 | 0.0 | 1.7 | 0.00 | 0.00 | 0.00 | 38 | 1014.5 |
| 20260503225826 | 62 | 360 | 0.0 | 0.9 | 0.00 | 0.00 | 0.00 | 37 | 1014.5 |
| 20260503225326 | 62 | 360 | 0.0 | 3.5 | 0.00 | 0.00 | 0.00 | 37 | 1014.6 |
| 20260503224826 | 62 | 360 | 0.0 | 3.5 | 0.00 | 0.00 | 0.00 | 36 | 1014.6 |
| 20260503224326 | 62 | 360 | 0.0 | 1.7 | 0.00 | 0.00 | 0.00 | 37 | 1014.5 |
| 20260503223826 | 63 | 360 | 0.0 | 1.7 | 0.00 | 0.00 | 0.00 | 36 | 1014.6 |
| 20260503223326 | 63 | 360 | 0.0 | 2.6 | 0.00 | 0.00 | 0.00 | 38 | 1014.7 |
| 20260503222826 | 63 | 360 | 0.0 | 2.6 | 0.00 | 0.00 | 0.00 | 36 | 1014.7 |
| 20260503222326 | 63 | 360 | 0.0 | 1.7 | 0.00 | 0.00 | 0.00 | 37 | 1014.8 |
| 20260503221326 | 63 | 360 | 0.0 | 3.5 | 0.00 | 0.00 | 0.00 | 37 | 1014.8 |
| 20260503220826 | 63 | 304 | 0.9 | 3.5 | 0.00 | 0.00 | 0.00 | 35 | 1014.8 |
| 20260503220326 | 63 | 277 | 0.0 | 3.5 | 0.00 | 0.00 | 0.00 | 34 | 1014.8 |
| 20260503215826 | 64 | 73 | 0.0 | 0.0 | 0.00 | 0.00 | 0.00 | 34 | 1014.7 |
| 20260503215326 | 64 | 154 | 0.0 | 3.5 | 0.00 | 0.00 | 0.00 | 35 | 1014.6 |
| 20260503214826 | 64 | 92 | 0.0 | 3.5 | 0.00 | 0.00 | 0.00 | 33 | 1014.5 |
| 20260503214326 | 64 | 149 | 0.9 | 4.3 | 0.00 | 0.00 | 0.00 | 33 | 1014.4 |
| 20260503213826 | 64 | 312 | 0.9 | 4.3 | 0.00 | 0.00 | 0.00 | 32 | 1014.5 |
| 20260503212826 | 64 | 307 | 1.7 | 4.3 | 0.00 | 0.00 | 0.00 | 34 | 1014.6 |
| 20260503212326 | 64 | 298 | 0.9 | 4.3 | 0.00 | 0.00 | 0.00 | 32 | 1014.6 |
| 20260503211826 | 64 | 309 | 0.0 | 4.3 | 0.00 | 0.00 | 0.00 | 33 | 1014.5 |
| 20260503211326 | 63 | 309 | 0.0 | 4.3 | 0.00 | 0.00 | 0.00 | 33 | 1014.6 |
| 20260503210826 | 63 | 293 | 0.9 | 5.2 | 0.00 | 0.00 | 0.00 | 31 | 1014.5 |
| 20260503210326 | 63 | 355 | 0.9 | 5.2 | 0.00 | 0.00 | 0.00 | 33 | 1014.5 |
| 20260503205826 | 63 | 9 | 0.0 | 6.1 | 0.00 | 0.00 | 0.00 | 33 | 1014.6 |
| 20260503205326 | 63 | 291 | 4.3 | 8.7 | 0.00 | 0.00 | 0.00 | 31 | 1014.6 |
| 20260503204826 | 63 | 278 | 0.9 | 8.7 | 0.00 | 0.00 | 0.00 | 31 | 1014.6 |
| 20260503204326 | 63 | 319 | 0.0 | 5.2 | 0.00 | 0.00 | 0.00 | 32 | 1014.6 |
| 20260503203826 | 63 | 311 | 0.0 | 5.2 | 0.00 | 0.00 | 0.00 | 32 | 1014.5 |
| 20260503203326 | 63 | 325 | 1.7 | 3.5 | 0.00 | 0.00 | 0.00 | 32 | 1014.6 |
| 20260503202826 | 63 | 331 | 0.9 | 5.2 | 0.00 | 0.00 | 0.00 | 33 | 1014.6 |
| 20260503202326 | 63 | 336 | 2.6 | 5.2 | 0.00 | 0.00 | 0.00 | 32 | 1014.7 |
| 20260503201826 | 62 | 5 | 0.0 | 5.2 | 0.00 | 0.00 | 0.00 | 31 | 1014.7 |
| 20260503201326 | 62 | 321 | 5.2 | 5.2 | 0.00 | 0.00 | 0.00 | 31 | 1014.6 |
| 20260503200826 | 62 | 327 | 0.9 | 3.5 | 0.00 | 0.00 | 0.00 | 32 | 1014.8 |
| 20260503200326 | 62 | 323 | 0.0 | 4.3 | 0.00 | 0.00 | 0.00 | 31 | 1014.9 |
| 20260503195826 | 63 | 315 | 0.0 | 5.2 | 0.00 | 0.00 | 0.00 | 31 | 1014.9 |
| 20260503195326 | 63 | 250 | 0.0 | 5.2 | 0.00 | 0.00 | 0.00 | 31 | 1014.9 |
| 20260503194326 | 64 | 290 | 0.0 | 2.6 | 0.00 | 0.00 | 0.00 | 32 | 1015.2 |
| 20260503193825 | 63 | 286 | 0.0 | 5.2 | 0.00 | 0.00 | 0.00 | 32 | 1015.1 |
| 20260503193326 | 63 | 239 | 0.0 | 5.2 | 0.00 | 0.00 | 0.00 | 34 | 1015.2 |
| 20260503192326 | 62 | 308 | 0.9 | 5.2 | 0.00 | 0.00 | 0.00 | 32 | 1015.4 |
| 20260503191826 | 62 | 264 | 1.7 | 7.0 | 0.00 | 0.00 | 0.00 | 34 | 1015.7 |
| 20260503191326 | 62 | 269 | 3.5 | 8.7 | 0.00 | 0.00 | 0.00 | 33 | 1015.5 |
| 20260503190826 | 62 | 277 | 0.9 | 8.7 | 0.00 | 0.00 | 0.00 | 32 | 1015.5 |
| 20260503190326 | 61 | 308 | 0.9 | 10.4 | 0.00 | 0.00 | 0.00 | 32 | 1015.6 |
| 20260503185826 | 62 | 293 | 1.7 | 10.4 | 0.00 | 0.00 | 0.00 | 33 | 1015.6 |
| 20260503185326 | 62 | 300 | 0.9 | 7.8 | 0.00 | 0.00 | 0.00 | 33 | 1015.8 |
| 20260503184826 | 61 | 342 | 0.0 | 7.8 | 0.00 | 0.00 | 0.00 | 34 | 1015.8 |
| 20260503184325 | 61 | 234 | 6.1 | 8.7 | 0.00 | 0.00 | 0.00 | 31 | 1015.8 |
| 20260503183826 | 62 | 252 | 1.7 | 8.7 | 0.00 | 0.00 | 0.00 | 32 | 1016.0 |
| 20260503182826 | 61 | 306 | 0.9 | 3.5 | 0.00 | 0.00 | 0.00 | 34 | 1016.0 |
| 20260503181326 | 60 | 316 | 1.7 | 6.1 | 0.00 | 0.00 | 0.00 | 35 | 1016.0 |
| 20260503180826 | 61 | 320 | 0.9 | 5.2 | 0.00 | 0.00 | 0.00 | 34 | 1016.0 |
| 20260503180326 | 60 | 360 | 0.0 | 5.2 | 0.00 | 0.00 | 0.00 | 35 | 1016.0 |
| 20260503175325 | 60 | 360 | 0.0 | 6.1 | 0.00 | 0.00 | 0.00 | 34 | 1016.1 |
| 20260503174826 | 60 | 360 | 2.6 | 7.0 | 0.00 | 0.00 | 0.00 | 35 | 1016.2 |
| 20260503174326 | 60 | 360 | 0.9 | 8.7 | 0.00 | 0.00 | 0.00 | 35 | 1016.2 |
| 20260503173326 | 59 | 360 | 0.9 | 5.2 | 0.00 | 0.00 | 0.00 | 35 | 1016.3 |
| 20260503172826 | 60 | 360 | 5.2 | 5.2 | 0.00 | 0.00 | 0.00 | 35 | 1016.3 |
| 20260503171826 | 59 | 360 | 1.7 | 6.1 | 0.00 | 0.00 | 0.00 | 37 | 1016.3 |
| 20260503171325 | 59 | 360 | 1.7 | 4.3 | 0.00 | 0.00 | 0.00 | 36 | 1016.4 |
| 20260503170825 | 59 | 360 | 0.9 | 6.1 | 0.00 | 0.00 | 0.00 | 36 | 1016.5 |
| 20260503170325 | 59 | 360 | 4.3 | 6.1 | 0.00 | 0.00 | 0.00 | 35 | 1016.6 |
| 20260503150825 | 56 | 360 | 0.0 | 3.5 | 0.00 | 0.01 | 0.00 | 43 | 1016.8 |
| 20260503150325 | 55 | 360 | 0.0 | 4.3 | 0.00 | 0.01 | 0.00 | 44 | 1016.9 |
| 20260503131325 | 52 | 360 | 0.9 | 4.3 | 0.00 | 0.01 | 0.00 | 51 | 1016.6 |
| 20260503130825 | 52 | 360 | 0.0 | 6.1 | 0.00 | 0.01 | 0.00 | 52 | 1016.5 |
| 20260503130325 | 52 | 360 | 3.5 | 6.1 | 0.00 | 0.01 | 0.00 | 51 | 1016.6 |
| 20260503110825 | 50 | 360 | 0.0 | 3.5 | 0.00 | 0.01 | 0.00 | 55 | 1015.3 |
| 20260503110324 | 50 | 360 | 0.0 | 1.7 | 0.00 | 0.01 | 0.00 | 54 | 1015.2 |
| 20260503090324 | 52 | 360 | 0.0 | 0.0 | 0.00 | 0.01 | 0.00 | 60 | 1013.2 |
| 20260503080824 | 53 | 360 | 0.0 | 5.2 | 0.00 | 0.01 | 0.00 | 60 | 1012.4 |
| 20260503072824 | 53 | 360 | 0.0 | 1.7 | 0.00 | 0.01 | 0.00 | 64 | 1012.2 |
| 20260503072324 | 53 | 360 | 0.0 | 0.9 | 0.00 | 0.01 | 0.00 | 64 | 1012.2 |
| 20260503071824 | 53 | 360 | 0.0 | 0.9 | 0.00 | 0.01 | 0.00 | 64 | 1012.1 |
| 20260503071324 | 53 | 360 | 0.0 | 0.9 | 0.00 | 0.01 | 0.00 | 65 | 1012.1 |
| 20260503070824 | 52 | 360 | 0.0 | 1.7 | 0.00 | 0.01 | 0.00 | 64 | 1012.0 |
| 20260503070324 | 52 | 360 | 0.0 | 3.5 | 0.00 | 0.01 | 0.00 | 65 | 1011.9 |
| 20260503060324 | 49 | 360 | 0.0 | 0.0 | 0.00 | 0.01 | 0.00 | 79 | 1011.5 |
| 20260503054824 | 49 | 360 | 0.0 | 0.0 | 0.00 | 0.01 | 0.00 | 77 | 1011.5 |
| 20260503053824 | 49 | 360 | 0.0 | 0.0 | 0.00 | 0.01 | 0.00 | 76 | 1011.5 |
| 20260503053324 | 49 | 360 | 0.0 | 0.0 | 0.00 | 0.01 | 0.00 | 75 | 1011.5 |
| 20260503052824 | 49 | 360 | 0.0 | 0.0 | 0.00 | 0.01 | 0.00 | 75 | 1011.4 |
| 20260503052324 | 50 | 360 | 0.0 | 0.0 | 0.00 | 0.01 | 0.00 | 75 | 1011.4 |
| 20260503051824 | 50 | 360 | 0.0 | 0.9 | 0.00 | 0.01 | 0.00 | 75 | 1011.4 |
| 20260503051324 | 50 | 360 | 0.0 | 0.9 | 0.00 | 0.01 | 0.00 | 75 | 1011.3 |
| 20260503045824 | 50 | 360 | 0.0 | 0.0 | 0.00 | 0.01 | 0.00 | 74 | 1011.5 |
| 20260503045324 | 50 | 360 | 0.0 | 0.0 | 0.00 | 0.01 | 0.00 | 73 | 1011.6 |
| 20260503044324 | 50 | 360 | 0.0 | 0.0 | 0.00 | 0.01 | 0.00 | 70 | 1011.6 |
| 20260503043324 | 51 | 360 | 0.0 | 0.0 | 0.00 | 0.01 | 0.00 | 71 | 1011.6 |
| 20260503041824 | 51 | 360 | 0.0 | 0.0 | 0.00 | 0.01 | 0.00 | 72 | 1011.6 |
| 20260503041324 | 51 | 360 | 0.0 | 0.0 | 0.00 | 0.01 | 0.00 | 71 | 1011.7 |
| 20260503040324 | 52 | 360 | 0.0 | 0.0 | 0.00 | 0.01 | 0.00 | 70 | 1011.5 |
| 20260503035824 | 52 | 360 | 0.0 | 0.0 | 0.00 | 0.01 | 0.00 | 72 | 1011.5 |
| 20260503035324 | 52 | 360 | 0.0 | 0.0 | 0.00 | 0.01 | 0.01 | 70 | 1011.7 |
| 20260503034824 | 52 | 360 | 0.0 | 0.0 | 0.00 | 0.01 | 0.01 | 70 | 1011.8 |
| 20260503034324 | 52 | 360 | 0.0 | 0.0 | 0.00 | 0.01 | 0.01 | 71 | 1011.8 |
| 20260503033824 | 52 | 360 | 0.0 | 0.0 | 0.00 | 0.01 | 0.01 | 71 | 1011.6 |
| 20260503033324 | 52 | 360 | 0.0 | 0.0 | 0.00 | 0.01 | 0.01 | 72 | 1011.4 |
| 20260503032824 | 52 | 360 | 0.0 | 0.0 | 0.00 | 0.01 | 0.01 | 71 | 1011.5 |
| 20260503032324 | 52 | 360 | 0.0 | 0.0 | 0.00 | 0.01 | 0.01 | 71 | 1011.5 |
| 20260503031324 | 52 | 360 | 0.0 | 0.0 | 0.00 | 0.01 | 0.01 | 71 | 1011.4 |
| 20260503030824 | 52 | 360 | 0.0 | 0.0 | 0.00 | 0.01 | 0.01 | 70 | 1011.4 |
| 20260503030324 | 52 | 360 | 0.0 | 0.0 | 0.00 | 0.01 | 0.01 | 69 | 1011.4 |
| 20260503025824 | 53 | 360 | 0.0 | 0.0 | 0.00 | 0.01 | 0.01 | 70 | 1011.2 |
| 20260503025323 | 53 | 360 | 0.0 | 0.0 | 0.00 | 0.01 | 0.01 | 69 | 1011.4 |